TimeMST,TemperatureF,Dew PointF,Humidity,Sea Level PressureIn,VisibilityMPH,Wind Direction,Wind SpeedMPH,Gust SpeedMPH,PrecipitationIn,Events,Conditions,WindDirDegrees,DateUTC
12:56 AM,78.1,36.0,22,29.94,10.0,SW,13.8,-,N/A,,Clear,230,2013-08-10 07:56:00
1:56 AM,71.1,44.1,38,29.96,10.0,Calm,Calm,-,N/A,,Scattered Clouds,0,2013-08-10 08:56:00
2:56 AM,72.0,45.0,38,29.96,10.0,SSW,5.8,-,N/A,,Partly Cloudy,200,2013-08-10 09:56:00
3:56 AM,69.1,46.0,44,29.97,10.0,Calm,Calm,-,N/A,,Partly Cloudy,0,2013-08-10 10:56:00
4:56 AM,66.9,45.0,45,29.98,10.0,West,3.5,-,N/A,,Partly Cloudy,270,2013-08-10 11:56:00
5:56 AM,68.0,45.0,43,29.99,10.0,SSW,3.5,-,N/A,,Partly Cloudy,210,2013-08-10 12:56:00
6:56 AM,72.0,50.0,46,30.01,10.0,Calm,Calm,-,N/A,,Mostly Cloudy,0,2013-08-10 13:56:00
7:56 AM,75.9,43.0,31,30.02,10.0,Calm,Calm,-,N/A,,Clear,0,2013-08-10 14:56:00
8:56 AM,77.0,48.0,36,30.03,10.0,Calm,Calm,-,N/A,,Clear,0,2013-08-10 15:56:00
9:56 AM,82.0,45.0,27,30.03,10.0,East,4.6,-,N/A,,Clear,100,2013-08-10 16:56:00
10:56 AM,82.9,39.9,22,30.02,10.0,SE,5.8,-,N/A,,Clear,140,2013-08-10 17:56:00
11:56 AM,86.0,43.0,22,30.00,10.0,Variable,6.9,-,N/A,,Clear,0,2013-08-10 18:56:00
12:56 PM,88.0,42.1,20,29.98,10.0,SSW,5.8,-,N/A,,Mostly Cloudy,200,2013-08-10 19:56:00
1:56 PM,89.1,44.1,21,29.97,10.0,Variable,5.8,-,N/A,,Partly Cloudy,0,2013-08-10 20:56:00
2:56 PM,89.1,46.0,22,29.94,10.0,South,6.9,-,N/A,,Clear,180,2013-08-10 21:56:00
3:56 PM,89.1,46.9,23,29.93,10.0,SSE,12.7,16.1,N/A,,Clear,150,2013-08-10 22:56:00
4:21 PM,89.6,46.4,22,30.12,10.0,SSE,12.7,-,N/A,,Partly Cloudy,160,2013-08-10 23:21:00
4:56 PM,90.0,46.9,23,29.92,10.0,SW,8.1,-,N/A,,Clear,220,2013-08-10 23:56:00
5:56 PM,84.9,48.9,29,29.93,10.0,East,11.5,17.3,N/A,,Mostly Cloudy,80,2013-08-11 00:56:00
6:15 PM,80.6,57.2,45,30.13,10.0,East,16.1,-,N/A,,Mostly Cloudy,90,2013-08-11 01:15:00
6:56 PM,79.0,57.0,47,29.96,10.0,ESE,18.4,-,N/A,,Overcast,110,2013-08-11 01:56:00
7:56 PM,78.1,57.0,48,29.97,10.0,SSE,15.0,-,N/A,,Scattered Clouds,150,2013-08-11 02:56:00
8:56 PM,75.9,57.0,52,29.99,10.0,SSE,17.3,-,N/A,,Overcast,160,2013-08-11 03:56:00
9:56 PM,75.9,55.9,50,29.99,10.0,SSE,16.1,-,N/A,,Overcast,160,2013-08-11 04:56:00
10:56 PM,77.0,55.0,47,29.98,10.0,SSE,15.0,-,N/A,,Overcast,160,2013-08-11 05:56:00
11:56 PM,75.9,55.9,50,29.98,10.0,SE,8.1,-,N/A,,Scattered Clouds,140,2013-08-11 06:56:00